sat.trackr.live / text

‹ back to catalog

STARLINK-34555

NORAD 64665 · 2025-139B

PAYLOAD ACTIVE UNKNOWN

§ Identity

Operator
Country
US
Launch date
2025-06-28
Launch site
AFETR
Launch vehicle
Mass (kg)
RCS (m²)

Purposes: comms

External: N2YO · Heavens-Above · Gunter

§ Orbital elements

Epoch: 2026-05-25T05:33:04.303584Z

Period
93.85 min
Inclination
53.1587°
Eccentricity
0.0001695
Mean motion
15.34400937 rev/d
Perigee alt
461.5 km
Apogee alt
463.9 km
Semi-major
6,840.8 km
B*
1.1785e-3
RAAN
130.7595°
Arg perigee
19.9300°
Mean anomaly
340.1768°
Rev number
5,191

§ Raw data

STARLINK-345551 64665U 25139B   26145.23129981  .00039652  00000+0  11785-2 0  99982 64665  53.1587 130.7595 0001695  19.9300 340.1768 15.34400937 51912

JSON: /api/v1/satellites/64665 · /tle

For live sub-satellite position, see the globe view (requires WebGL).

§ Visibility from observer

Set your observer location to see the next 7 days of passes ≥ 10°. The values pass through the URL so the page stays shareable.

No JS? Fill the form by hand. The geolocation button needs JavaScript.